STARLINK-6030 (56107 NORAD) Tracking and Keplerian Element Data

This shows tracking and keplerian element data for the satellite.

Feedback or suggestion? Click here.




ElementValue
Catalog56107
NameSTARLINK-6030
Epoch Orbit652
Epoch Day127.25001157
Epoch Year2023
RAAN37.6987
Inclination43.0012
Eccentricity0.0001455
Argument of Perigee277.355
Mean Anonmoly146.7106
Mean Motion15.30340963
Decay Rate-0.00898931
L11 56107U 23046Q 23127.25001157 -.00898931 00000+0 -32705-1 0 9997
L22 56107 43.0012 37.6987 0001455 277.3550 146.7106 15.30340963 6527



Live tracking and technical data element details for STARLINK-6030 (NORAD 56107). STARLINK-6030 can be tracked NOW for your location showing map with azimuth and elevation plus other details from your city location.







IsCatalogInMostPopularTable: catalog: 56107, numindb: -1

Insert: records affected: 1


GetName: 56107 STARLINK-6030

Hit Count: inserted at: Sun, 04 Jun 2023 23:19:04 GMT